Zurück zum Katalog

THOR ABLESTAR DEB

AktivLEO
NORAD 560·DEBRIS·🇺🇸 United States

Gestartet Jun 29, 1961 von Cape Canaveral Space Force Station

Loading…

Nächste Überflüge (nächste 24 Stunden)

TLE

AktuellSource: Space-Track

Epoche: Sep 13, 2026, 19:03 UTC

1 00560U 61015GS  26256.79422902  .00001636  00000-0  16880-2 0  9991
2 00560  67.1598  50.4542 0305292 241.9687 115.0192 13.59696346166450

Verfolge THOR ABLESTAR DEB in Echtzeit mit AllMySat

Download on the App Store